GW5108 Weather Reports


Display with metric or nautical units.
time (UTC)temp
F
wind
direction
speed
MPH
gust
MPH
rain 1hr
in
rain 24hr
in
rain mn
in
humidity
%
barometer
mb
20260508092702 36 262 2.0 2.0 0.00 0.00 0.00 90 1018.8
20260508092200 34 275 1.0 2.0 0.00 0.00 0.00 93 1018.7
20260508091657 34 289 0.0 0.0 0.00 0.00 0.00 92 1018.7
20260508091154 35 289 1.0 1.0 0.00 0.00 0.00 92 1018.6
20260508090652 35 289 1.0 2.0 0.00 0.00 0.00 91 1018.5
20260508090149 35 289 0.0 0.0 0.00 0.00 0.00 91 1018.4
20260508085640 35 289 0.0 0.0 0.00 0.00 0.00 91 1018.3
20260508085138 34 289 0.0 0.0 0.00 0.00 0.00 91 1018.2
20260508084634 34 289 0.0 0.0 0.00 0.00 0.00 91 1018.4
20260508084131 34 289 0.0 0.0 0.00 0.00 0.00 90 1018.1
20260508083628 35 289 0.0 0.0 0.00 0.00 0.00 89 1018.2
20260508083126 36 289 0.0 0.0 0.00 0.00 0.00 89 1018.3
20260508082621 36 289 0.0 0.0 0.00 0.00 0.00 90 1018.3
20260508082119 35 289 0.0 0.0 0.00 0.00 0.00 91 1018.4
20260508081616 36 289 0.0 0.0 0.00 0.00 0.00 91 1018.2
20260508081112 35 289 0.0 0.0 0.00 0.00 0.00 91 1018.3
20260508080610 35 289 0.0 0.0 0.00 0.00 0.00 90 1018.2
20260508080108 35 289 0.0 0.0 0.00 0.00 0.00 90 1018.3
20260508075603 35 289 0.0 0.0 0.00 0.00 0.00 90 1018.3
20260508075101 35 289 0.0 0.0 0.00 0.00 0.00 90 1018.4
20260508074559 35 289 0.0 0.0 0.00 0.00 0.00 89 1018.4
20260508074055 36 289 0.0 0.0 0.00 0.00 0.00 89 1018.3
20260508073553 36 289 0.0 0.0 0.00 0.00 0.00 90 1018.1
20260508073050 36 289 0.0 0.0 0.00 0.00 0.00 90 1018.1
20260508072545 36 289 0.0 0.0 0.00 0.00 0.00 89 1018.2
20260508072043 36 289 0.0 0.0 0.00 0.00 0.00 89 1018.0
20260508071541 36 289 0.0 0.0 0.00 0.00 0.00 89 1018.1
20260508071038 36 289 0.0 0.0 0.00 0.00 0.00 88 1018.1
20260508070536 37 289 0.0 0.0 0.00 0.00 0.00 88 1018.2
20260508070035 37 289 0.0 0.0 0.00 0.00 0.00 87 1018.2
20260508065531 37 289 0.0 0.0 0.00 0.00 0.00 86 1018.0
20260508065029 37 289 0.0 0.0 0.00 0.00 0.00 86 1018.3
20260508064527 37 289 0.0 0.0 0.00 0.00 0.00 86 1018.2
20260508064024 37 289 0.0 0.0 0.00 0.00 0.00 85 1018.3
20260508063521 37 289 0.0 0.0 0.00 0.00 0.00 85 1018.3
20260508063019 37 289 0.0 0.0 0.00 0.00 0.00 84 1018.4
20260508062516 37 289 0.0 0.0 0.00 0.00 0.00 82 1018.5
20260508062013 38 289 0.0 0.0 0.00 0.00 0.00 81 1018.4
20260508061511 39 289 0.0 0.0 0.00 0.00 0.00 78 1018.5
20260508061007 40 289 0.0 0.0 0.00 0.00 0.00 77 1018.6
20260508060504 41 289 0.0 1.0 0.00 0.00 0.00 76 1018.6
20260508060001 42 289 1.0 2.0 0.00 0.00 0.00 74 1018.5
20260508055457 42 297 2.0 2.0 0.00 0.00 0.00 74 1018.5
20260508054953 41 301 1.0 3.0 0.00 0.00 0.00 74 1018.6
20260508054450 42 271 2.0 4.0 0.00 0.00 0.00 73 1018.3
20260508053947 42 308 0.0 0.0 0.00 0.00 0.00 74 1018.3
20260508053444 42 308 2.0 4.0 0.00 0.00 0.00 74 1018.4
20260508052942 42 291 1.0 2.0 0.00 0.00 0.00 74 1018.1
20260508052439 42 277 2.0 3.0 0.00 0.00 0.00 74 1018.3
20260508051936 42 294 2.0 3.0 0.00 0.00 0.00 75 1018.3
20260508051431 42 316 3.0 3.0 0.00 0.00 0.00 75 1018.1
20260508050927 42 294 3.0 4.0 0.00 0.00 0.00 76 1018.0
20260508050424 42 291 2.0 3.0 0.00 0.00 0.00 76 1018.0
20260508045920 42 298 2.0 3.0 0.00 0.00 0.00 77 1018.0
20260508045418 42 303 2.0 3.0 0.00 0.00 0.00 77 1018.0
20260508044916 42 308 2.0 3.0 0.00 0.00 0.00 76 1018.0
20260508044413 42 306 2.0 4.0 0.00 0.00 0.00 76 1018.0
20260508043908 42 311 3.0 3.0 0.00 0.00 0.00 76 1017.7
20260508043406 42 296 2.0 3.0 0.00 0.00 0.00 77 1017.9
20260508042902 42 301 2.0 3.0 0.00 0.00 0.00 79 1018.0
20260508042400 42 300 2.0 2.0 0.00 0.00 0.00 79 1018.0
20260508041856 42 305 1.0 2.0 0.00 0.00 0.00 78 1018.0
20260508041353 42 306 2.0 2.0 0.00 0.00 0.00 78 1018.0
20260508040849 43 297 2.0 2.0 0.00 0.00 0.00 77 1017.7
20260508040347 44 292 1.0 4.0 0.00 0.00 0.00 76 1017.6
20260508035844 44 307 2.0 3.0 0.00 0.00 0.00 77 1017.6
20260508035341 44 301 3.0 3.0 0.00 0.00 0.00 77 1017.7
20260508034838 44 290 2.0 4.0 0.00 0.00 0.00 76 1017.5
20260508034335 44 281 3.0 6.0 0.00 0.00 0.00 75 1017.6
20260508033832 44 291 2.0 4.0 0.00 0.00 0.00 76 1017.5
20260508033330 45 303 2.0 4.0 0.00 0.00 0.00 75 1017.7
20260508032827 45 299 4.0 4.0 0.00 0.00 0.00 75 1017.7
20260508032325 45 280 3.0 4.0 0.00 0.00 0.00 75 1017.6
20260508031821 45 305 3.0 4.0 0.00 0.00 0.00 74 1017.4
20260508031318 45 294 3.0 4.0 0.00 0.00 0.00 75 1017.5
20260508030814 45 295 2.0 3.0 0.00 0.00 0.00 76 1017.6
20260508030312 45 306 2.0 3.0 0.00 0.00 0.00 76 1017.5
20260508025808 45 294 2.0 3.0 0.00 0.00 0.00 76 1017.4
20260508025306 45 299 3.0 3.0 0.00 0.00 0.00 76 1017.4
20260508024801 45 297 2.0 2.0 0.00 0.00 0.00 77 1017.2
20260508024258 46 296 2.0 3.0 0.00 0.00 0.00 75 1017.0
20260508023755 46 295 2.0 6.0 0.00 0.00 0.00 74 1017.1
20260508023252 46 303 3.0 4.0 0.00 0.00 0.00 74 1017.2
20260508022748 46 290 3.0 6.0 0.00 0.00 0.00 73 1017.1
20260508022245 46 296 3.0 4.0 0.00 0.00 0.00 74 1017.1
20260508021742 46 293 4.0 4.0 0.00 0.00 0.00 75 1016.8
20260508021237 46 296 2.0 3.0 0.00 0.00 0.00 76 1017.0
20260508020735 46 299 3.0 3.0 0.00 0.00 0.00 76 1016.8
20260508020232 46 301 2.0 3.0 0.00 0.00 0.00 75 1016.8
20260508015729 46 301 3.0 3.0 0.00 0.00 0.00 75 1016.7
20260508015226 47 299 2.0 3.0 0.00 0.00 0.00 74 1016.7
20260508014723 47 297 3.0 4.0 0.00 0.00 0.00 73 1016.6
20260508014220 47 294 4.0 4.0 0.00 0.00 0.00 74 1016.5
20260508013715 47 298 3.0 4.0 0.00 0.00 0.00 74 1016.5
20260508013212 47 292 2.0 4.0 0.00 0.00 0.00 74 1016.5
20260508012710 47 309 3.0 4.0 0.00 0.00 0.00 73 1016.3
20260508012206 47 303 3.0 3.0 0.00 0.00 0.00 74 1016.3
20260508011705 48 300 2.0 4.0 0.00 0.00 0.00 74 1016.1
20260508011202 48 296 3.0 3.0 0.00 0.00 0.00 73 1016.2
20260508010658 48 294 3.0 3.0 0.00 0.00 0.00 71 1016.1
20260508010156 48 326 4.0 6.0 0.00 0.00 0.00 70 1016.0
20260508005653 49 284 2.0 3.0 0.00 0.00 0.00 70 1016.1
20260508005150 49 288 3.0 6.0 0.00 0.00 0.00 69 1015.9
20260508004646 49 315 4.0 8.0 0.00 0.00 0.00 70 1016.0
20260508004142 48 319 4.0 6.0 0.00 0.00 0.00 72 1015.9
20260508003639 49 312 2.0 3.0 0.00 0.00 0.00 73 1015.9
20260508003136 49 316 2.0 3.0 0.00 0.00 0.00 69 1015.7
20260508002632 50 312 2.0 4.0 0.00 0.00 0.00 69 1015.7
20260508002131 50 305 3.0 3.0 0.00 0.00 0.00 68 1015.8
20260508001625 51 292 2.0 4.0 0.00 0.00 0.00 66 1015.8
20260508001122 51 306 3.0 3.0 0.00 0.00 0.00 67 1015.6
20260508000618 51 306 3.0 7.0 0.00 0.00 0.00 65 1015.6
20260508000115 52 315 7.0 8.0 0.00 0.00 0.00 63 1015.5
20260507235612 52 318 6.0 11.0 0.00 0.00 0.00 63 1015.6
20260507235110 52 324 6.0 8.0 0.00 0.00 0.00 64 1015.5
20260507234606 52 317 8.0 10.0 0.00 0.00 0.00 62 1015.5
20260507234102 53 305 6.0 8.0 0.00 0.00 0.00 64 1015.4
20260507233559 53 310 5.0 8.0 0.00 0.00 0.00 64 1015.4
20260507233058 53 319 5.0 9.0 0.00 0.00 0.00 65 1015.3
20260507232553 53 304 6.0 9.0 0.00 0.00 0.00 64 1015.4
20260507232051 53 293 5.0 10.0 0.00 0.00 0.00 63 1015.5
20260507231547 53 318 6.0 9.0 0.00 0.00 0.00 63 1015.4
20260507231045 53 281 4.0 11.0 0.00 0.00 0.00 64 1015.2
20260507230541 54 290 7.0 9.0 0.00 0.00 0.00 64 1015.2
20260507230038 55 301 5.0 9.0 0.00 0.00 0.00 61 1015.3
20260507225533 55 293 9.0 11.0 0.00 0.00 0.00 61 1015.1
20260507225030 55 308 7.0 10.0 0.00 0.00 0.00 60 1015.1
20260507224525 56 303 3.0 9.0 0.00 0.00 0.00 61 1015.1
20260507224022 56 325 6.0 9.0 0.00 0.00 0.00 61 1015.2
20260507223518 55 320 5.0 11.0 0.00 0.00 0.00 59 1014.9
20260507223016 56 293 8.0 9.0 0.00 0.00 0.00 61 1014.8
20260507222513 55 303 11.0 14.0 0.00 0.00 0.00 63 1014.9
20260507222009 54 325 5.0 14.0 0.00 0.00 0.00 62 1015.1
20260507221505 54 316 8.0 13.0 0.00 0.00 0.00 63 1014.8
20260507221002 54 319 9.0 13.0 0.00 0.00 0.00 62 1014.7
20260507220500 55 307 9.0 18.0 0.00 0.00 0.00 60 1014.7
20260507215956 56 343 3.0 10.0 0.00 0.00 0.00 62 1014.5
20260507215452 57 311 9.0 10.0 0.00 0.00 0.00 61 1014.5
20260507214950 56 320 7.0 10.0 0.00 0.00 0.00 66 1014.5
20260507214448 55 301 6.0 11.0 0.00 0.00 0.00 64 1014.6
20260507213943 54 296 9.0 13.0 0.00 0.00 0.00 65 1014.6
20260507213440 55 307 8.0 9.0 0.00 0.00 0.00 64 1014.4
20260507212937 54 282 5.0 7.0 0.00 0.00 0.00 67 1014.6
20260507212432 54 310 8.0 8.0 0.00 0.00 0.00 66 1014.5
20260507211930 54 306 5.0 10.0 0.00 0.00 0.00 68 1014.4
20260507211426 54 299 4.0 6.0 0.00 0.00 0.00 69 1014.2
20260507210923 54 314 4.0 7.0 0.00 0.00 0.00 68 1014.2
20260507210420 54 307 6.0 10.0 0.00 0.00 0.00 68 1014.1
20260507205917 54 320 9.0 11.0 0.00 0.00 0.00 65 1014.1
20260507205414 54 292 9.0 13.0 0.00 0.00 0.00 65 1014.2
20260507204910 53 316 6.0 15.0 0.00 0.00 0.00 67 1014.1
20260507204406 53 303 8.0 11.0 0.00 0.00 0.00 67 1014.3
20260507203904 53 311 9.0 11.0 0.00 0.00 0.00 68 1014.2
20260507203402 53 291 8.0 13.0 0.00 0.00 0.00 67 1014.3
20260507202858 54 286 8.0 10.0 0.00 0.00 0.00 68 1014.4
20260507202355 55 279 5.0 11.0 0.00 0.00 0.00 67 1014.3
20260507201850 55 294 11.0 13.0 0.00 0.00 0.00 68 1014.3
20260507201345 54 350 7.0 11.0 0.00 0.00 0.00 67 1014.5
20260507200842 53 315 8.0 10.0 0.00 0.00 0.00 72 1014.7
20260507200338 52 297 7.0 10.0 0.00 0.00 0.00 70 1014.7
20260507195835 53 314 10.0 14.0 0.00 0.00 0.00 70 1014.8
20260507195332 53 281 3.0 8.0 0.00 0.00 0.00 71 1014.6
20260507194829 53 343 8.0 10.0 0.00 0.00 0.00 71 1014.6
20260507194325 53 276 5.0 17.0 0.00 0.00 0.00 72 1014.5
20260507193822 53 295 11.0 13.0 0.00 0.00 0.00 68 1014.8
20260507193319 53 309 7.0 10.0 0.00 0.00 0.00 70 1014.6
20260507192815 53 319 2.0 9.0 0.00 0.00 0.00 70 1014.8
20260507192312 53 319 10.0 13.0 0.00 0.00 0.00 70 1014.8
20260507191808 54 326 6.0 9.0 0.00 0.00 0.00 71 1014.6
20260507191304 53 290 6.0 8.0 0.00 0.00 0.00 69 1014.8
20260507190802 53 329 5.0 9.0 0.00 0.00 0.00 68 1014.9
20260507190300 53 312 4.0 8.0 0.00 0.00 0.00 70 1015.1
20260507185758 55 327 8.0 13.0 0.00 0.00 0.00 68 1014.9
20260507185254 56 39 7.0 9.0 0.00 0.00 0.00 64 1014.9
20260507184752 55 281 6.0 11.0 0.00 0.00 0.00 66 1015.1
20260507184250 54 285 5.0 9.0 0.00 0.00 0.00 66 1015.2
20260507183747 55 315 6.0 8.0 0.00 0.00 0.00 66 1015.2
20260507183243 55 325 4.0 8.0 0.00 0.00 0.00 67 1014.9
20260507182741 55 4 5.0 7.0 0.00 0.00 0.00 65 1014.9
20260507182236 55 294 2.0 6.0 0.00 0.00 0.00 70 1014.9
20260507181733 54 296 6.0 8.0 0.00 0.00 0.00 69 1014.7
20260507181229 54 294 6.0 10.0 0.00 0.00 0.00 67 1014.8
20260507180726 53 327 6.0 9.0 0.00 0.00 0.00 68 1015.1
20260507180223 52 335 5.0 7.0 0.00 0.00 0.00 70 1015.1
20260507175718 52 303 8.0 11.0 0.00 0.00 0.00 69 1015.2
20260507175215 53 347 6.0 8.0 0.00 0.00 0.00 71 1015.3
20260507174713 53 317 6.0 11.0 0.00 0.00 0.00 69 1015.2
20260507174211 53 296 5.0 9.0 0.00 0.00 0.00 68 1015.2
20260507173708 53 339 4.0 9.0 0.00 0.00 0.00 72 1014.9
20260507173205 53 330 6.0 9.0 0.00 0.00 0.00 69 1015.3
20260507172701 54 354 6.0 9.0 0.00 0.00 0.00 69 1015.1
20260507172158 53 332 7.0 8.0 0.00 0.00 0.00 71 1015.2
20260507171658 53 313 3.0 7.0 0.00 0.00 0.00 71 1015.2
20260507171156 53 329 6.0 11.0 0.00 0.00 0.00 70 1015.2
20260507170653 53 341 6.0 8.0 0.00 0.00 0.00 72 1015.4
20260507170150 53 308 7.0 8.0 0.00 0.00 0.00 70 1015.2
20260507165645 52 315 1.0 6.0 0.00 0.00 0.00 74 1015.3
20260507165142 53 290 8.0 11.0 0.00 0.00 0.00 73 1015.5
20260507164638 52 286 7.0 9.0 0.00 0.00 0.00 72 1015.4
20260507164135 53 307 4.0 10.0 0.00 0.00 0.00 70 1015.5
20260507163632 53 304 6.0 8.0 0.00 0.00 0.00 73 1015.5
20260507163130 52 7 1.0 6.0 0.00 0.00 0.00 73 1015.6
20260507162625 51 327 3.0 9.0 0.00 0.00 0.00 73 1015.4
20260507162122 51 306 4.0 6.0 0.00 0.00 0.00 75 1015.6
20260507161618 51 324 3.0 7.0 0.00 0.00 0.00 76 1015.7
20260507161115 51 303 6.0 8.0 0.00 0.00 0.00 74 1015.7
20260507160612 51 317 4.0 9.0 0.00 0.00 0.00 73 1015.8
20260507160108 52 259 5.0 8.0 0.00 0.00 0.00 71 1015.7
20260507155603 51 346 3.0 6.0 0.00 0.00 0.00 75 1015.9
20260507155100 51 2 5.0 8.0 0.00 0.00 0.00 73 1015.7
20260507154557 51 350 5.0 9.0 0.00 0.00 0.00 80 1015.7
20260507154054 51 332 4.0 7.0 0.00 0.00 0.00 78 1015.8
20260507153551 50 330 2.0 3.0 0.00 0.00 0.00 77 1015.7
20260507153047 50 341 3.0 7.0 0.00 0.00 0.00 79 1015.7
20260507152543 49 1 5.0 8.0 0.00 0.00 0.00 78 1015.9
20260507152040 49 344 5.0 7.0 0.00 0.00 0.00 77 1015.7
20260507151536 50 326 6.0 8.0 0.00 0.00 0.00 79 1015.9
20260507151033 50 10 4.0 6.0 0.00 0.00 0.00 79 1015.6
20260507150530 50 330 4.0 9.0 0.00 0.00 0.00 80 1015.8
20260507150027 50 20 4.0 7.0 0.00 0.00 0.00 78 1015.7
20260507145522 49 324 3.0 6.0 0.00 0.00 0.00 83 1015.9
20260507145020 48 344 3.0 8.0 0.00 0.00 0.00 82 1015.9
20260507144516 48 350 5.0 6.0 0.00 0.00 0.00 84 1016.0
20260507144014 48 341 2.0 4.0 0.00 0.00 0.00 86 1015.7
20260507143511 47 324 3.0 3.0 0.00 0.00 0.00 86 1015.8
20260507143008 47 343 4.0 8.0 0.00 0.00 0.00 86 1016.1
20260507142503 47 327 3.0 7.0 0.00 0.00 0.00 86 1016.0
20260507142001 46 334 2.0 4.0 0.00 0.00 0.00 87 1016.1
20260507141456 46 323 3.0 7.0 0.00 0.00 0.00 88 1016.2
20260507140953 46 348 6.0 7.0 0.00 0.00 0.00 88 1016.0
20260507140450 46 316 4.0 10.0 0.00 0.00 0.00 88 1016.2
20260507135948 46 326 4.0 6.0 0.00 0.00 0.00 90 1016.0
20260507135444 46 324 4.0 6.0 0.00 0.00 0.00 89 1016.1
20260507134942 46 351 3.0 8.0 0.00 0.00 0.00 90 1015.9
20260507134438 46 348 5.0 6.0 0.00 0.00 0.00 90 1016.2
20260507133934 46 315 3.0 7.0 0.00 0.00 0.00 91 1016.1
20260507133430 46 331 3.0 4.0 0.00 0.00 0.00 92 1016.5
20260507132929 46 321 4.0 4.0 0.00 0.00 0.00 93 1016.3
20260507132425 46 324 3.0 6.0 0.00 0.00 0.00 93 1016.2
20260507131921 46 331 3.0 4.0 0.00 0.00 0.00 94 1016.3
20260507131418 46 326 2.0 4.0 0.00 0.00 0.00 94 1016.5
20260507130915 46 319 2.0 6.0 0.00 0.00 0.00 94 1016.5
20260507130412 46 342 4.0 4.0 0.00 0.00 0.00 94 1016.3
20260507125911 46 333 3.0 4.0 0.00 0.00 0.00 94 1016.5
20260507125409 46 344 5.0 7.0 0.00 0.00 0.00 93 1016.3
20260507124906 46 332 6.0 7.0 0.00 0.00 0.00 93 1016.6
20260507124401 45 309 6.0 8.0 0.00 0.00 0.00 93 1016.6
20260507123900 45 314 5.0 7.0 0.00 0.00 0.00 94 1016.7
20260507123357 45 323 2.0 7.0 0.00 0.00 0.00 94 1016.3
20260507122853 45 338 4.0 4.0 0.00 0.00 0.00 94 1016.5
20260507122349 45 306 5.0 6.0 0.00 0.00 0.00 95 1016.7
20260507121845 45 314 5.0 7.0 0.00 0.00 0.00 95 1016.6
20260507121341 45 306 5.0 6.0 0.00 0.00 0.00 95 1016.3
20260507120838 45 325 4.0 7.0 0.00 0.00 0.00 95 1016.5
20260507120334 45 326 2.0 4.0 0.00 0.00 0.00 95 1015.8
20260507115830 45 311 6.0 7.0 0.00 0.00 0.00 96 1016.2
20260507115326 45 324 4.0 6.0 0.00 0.00 0.00 96 1016.1
20260507114822 45 319 3.0 3.0 0.00 0.00 0.00 97 1016.1
20260507114319 46 332 2.0 3.0 0.00 0.00 0.00 97 1016.0
20260507113817 45 347 5.0 6.0 0.00 0.00 0.00 97 1016.3
20260507113314 45 335 3.0 3.0 0.00 0.00 0.00 97 1016.0
20260507112811 45 333 3.0 4.0 0.00 0.00 0.00 97 1015.9
20260507112308 45 353 6.0 8.0 0.00 0.00 0.00 97 1016.1
20260507111806 45 340 3.0 4.0 0.00 0.00 0.00 97 1016.2
20260507111302 45 340 3.0 9.0 0.00 0.00 0.00 98 1016.0
20260507110758 45 335 3.0 4.0 0.00 0.00 0.00 99 1015.9
20260507110255 45 326 4.0 6.0 0.00 0.00 0.00 99 1015.7
20260507105752 46 348 3.0 3.0 0.00 0.00 0.00 99 1015.6
20260507105248 46 328 2.0 4.0 0.00 0.00 0.00 99 1015.7
20260507104745 46 321 2.0 3.0 0.00 0.00 0.00 99 1015.7
20260507104242 46 353 3.0 4.0 0.00 0.00 0.00 99 1015.3
20260507103738 46 333 1.0 2.0 0.00 0.00 0.00 99 1015.4
20260507103234 46 343 3.0 3.0 0.00 0.00 0.00 99 1015.6
20260507102730 46 336 2.0 3.0 0.00 0.00 0.00 99 1015.5
20260507102227 46 325 2.0 3.0 0.00 0.00 0.00 99 1015.4
20260507101723 46 328 2.0 3.0 0.00 0.00 0.00 99 1015.2
20260507101219 47 339 6.0 8.0 0.00 0.00 0.00 99 1015.2
20260507100716 47 319 2.0 6.0 0.00 0.00 0.00 99 1015.3
20260507100214 47 321 3.0 4.0 0.00 0.00 0.00 99 1015.2
20260507095712 47 322 5.0 6.0 0.00 0.00 0.00 99 1015.1
20260507095208 47 321 3.0 6.0 0.00 0.00 0.00 99 1014.8
20260507094705 47 335 4.0 6.0 0.00 0.00 0.00 99 1015.1
20260507094202 47 316 4.0 7.0 0.00 0.00 0.00 99 1015.4
20260507093659 47 305 2.0 2.0 0.00 0.00 0.00 99 1014.9
20260507093158 47 292 2.0 3.0 0.00 0.00 0.00 99 1015.3